Location: Newark
(47.5833°N, 8.1500°E)
Time: 08:02:30
(UTC+00:00)

Vanguard 1 - Pass Details

Date: 30 October 2020
Orbit: 650 x 3833 km, 34.2° (Epoch: 29 November)

Event Time Altitude Azimuth Distance (km) Brightness Sun altitude
Rises 14:42:02 0° 263° (W) 7,862 15.8 12.5°
Reaches altitude 10° 14:47:30 10° 259° (W) 6,927 15.8 11.8°
Maximum altitude 15:09:29 53° 192° (SSW) 3,876 13.6 8.7°
Drops below altitude 10° 15:24:58 10° 121° (ESE) 5,058 13.4 6.5°
Sets 15:28:14 0° 117° (ESE) 5,709 13.6 6.0°
